SL-12 R/B(AUX MOTOR)

Satellite information

Favourite Embed

Satellite Type and Status

ROCKET BODYIN ORBIT

Key statistics

Satellite SL-12 R/B(AUX MOTOR) at a glance.

Uptime

15422

Days in orbit

Revolutions

≈ 4.9

Per day

Orbit

MEO

Medium Earth Orbit

Inclination

51.9

Latest

Satellite identification and parameters

Extended collection of information and parameters for SL-12 R/B(AUX MOTOR).

Object identification

Identified? True

Debris? False

Object name: SL-12 R/B(AUX MOTOR)

International designator: 1983-084G

Object number (NORAD): 14277

Object ID (CCSDS): 14277

Country: COMMONWEALTH OF INDEPENDENT STATES (CIS)

Current information (Y/N): Y

RCS size: MEDIUM

Orbital parameters

Period: 292.241 minutes

Inclination: 51.9099 deg

SMA: 14587.719 km

Apoapsis: 16056.685 km

Periapsis: 362.483 km

RAAN: 164.5223 deg

Eccentricy: 0.53792515

Argument of periapsis: 40.8292 deg

Mean anomaly: 349.0933 deg

Mean motion: 4.92744377 rev/day

Mean motion (dot): 0.0000239 rev/day2

B* drag term: 0.0011575988 1/REarth

Two-line elements (TLE)

Creation date: Oct. 30, 2025, 3:32 a.m.

Reference frame: TEME

Reference center: EARTH

Epoch: Oct. 29, 2025, 9:08 p.m. UTC

TLE line 0: 0 SL-12 R/B(AUX MOTOR)

TLE line 1: 1 14277U 83084G 25302.88102493 .00002390 00000-0 11576-2 0 9997

TLE line 2: 2 14277 51.9099 164.5223 5379252 40.8292 349.0933 4.92744377708303

Live tracking on map

Real-time ground track for satellite SL-12 R/B(AUX MOTOR).

In-orbit conjunctions

There are no conjunctions computed for SL-12 R/B(AUX MOTOR), at the moment. Check back to stay up to date, as we update our databases every day.

Go to all conjunctions

Associated space launch

Second generation high resolution film-return Yantar reconnaissance satellite

SL-12 R/B(AUX MOTOR) was lifted into orbit during the mission ‘Soyuz U | Yantar-4K1 10’, on board a Soyuz U space rocket.

The launch took place on Aug. 10, 1983, 1 p.m. from 1/5.

For more information about the launch, click the button.

Launch to space Soyuz U | Yantar-4K1 10
Soyuz U | Yantar-4K1 10

Agency: N/A

Status: Launch Successful

Launch date: Aug. 10, 1983, 1 p.m. UTC

Rocket: Soyuz U

Launch pad: 1/5

Location: Baikonur Cosmodrome, Republic of Kazakhstan

...

Latest news about this satellite

There are no fresh news available about this satellite. Check back as we update our databases every day.


Newsletter sign-up

Weekly statistics, charts and insights to help you stay on top of the space industry.